National Weather Service Raw Text Product

Displaying AFOS PIL: RWRIA Received: 2018-02-14 00:00 UTC


670 
ASUS43 KDMX 140006
RWRIA 

WEATHER ROUNDUP FOR IOWA
NATIONAL WEATHER SERVICE DES MOINES IA
600 PM CST TUE FEB 13 2018

NOTE: "FAIR" INDICATES FEW OR NO CLOUDS BELOW 12,000 FEET WITH NO
SIGNIFICANT WEATHER AND/OR OBSTRUCTIONS TO VISIBILITY.

* - THESE STATIONS ARE NOT NWS STATIONS...THUS NOT UNDER NWS
QUALITY CONTROL.  THEY ALSO DO NOT REPORT WEATHER SUCH 
AS PRECIPITATION OR FOG.  

IAZ001>003-012>014-020>022-031>034-043>046-140100-
   NORTHWEST IOWA
  
CITY           SKY/WX    TMP DP  RH WIND       PRES   REMARKS
CARROLL *      CLEAR     30  25  80 S7        30.16F WCI  23          
CHEROKEE *     CLEAR     31  25  78 SW10      30.13S WCI  22          
DENISON *      CLEAR     32  27  80 S7        30.17F WCI  26          
LE MARS *      CLEAR     28  25  86 S8        30.11F WCI  20          
ORANGE CITY *  CLEAR     28  27  93 SW14      30.09F WCI  17          
SHELDON *      CLEAR     27  23  86 S10       30.07F WCI  17          
SIOUX CITY     CLEAR     30  24  78 S13       30.14F WCI  20          
6HR MIN TEMP:  28; 6HR MAX TEMP:  33;                                

SPENCER        CLEAR     26  20  77 S13       30.11F WCI  15          
6HR MIN TEMP:  23; 6HR MAX TEMP:  30;                                

STORM LAKE *   CLEAR     28  23  80 SW13      30.12F WCI  18          
$$
 
IAZ055>058-069>071-079>083-090>094-140100-
   SOUTHWEST IOWA
  
CITY           SKY/WX    TMP DP  RH WIND       PRES   REMARKS
ATLANTIC *     CLEAR     32  27  80 SW5       30.19R WCI  27          
AUDUBON *      CLEAR     32  27  80 CALM      30.19S                  
CLARINDA *     CLEAR     39  30  70 S3        30.22S                  
COUNCIL BLFS * CLEAR     37  32  81 SW7       30.17S WCI  32          
CRESTON *      CLEAR     36  27  69 S7        30.20F WCI  30          
HARLAN  *      CLEAR     30  27  86 S5        30.21S WCI  25          
LAMONI         CLEAR     40  24  53 S7        30.21F                  
6HR MIN TEMP:  33; 6HR MAX TEMP:  45;                                

RED OAK *      CLEAR     36  28  75 CALM      30.19F                  
SHENANDOAH *   CLEAR     39  30  70 CALM      30.20S                  
$$
 
IAZ047>049-059>061-072>074-084-140100-
   CENTRAL IOWA
  
CITY           SKY/WX    TMP DP  RH WIND       PRES   REMARKS
AMES           CLEAR     31  22  69 S6        30.19F WCI  25          
6HR MIN TEMP:  24; 6HR MAX TEMP:  34;                                

ANKENY *       CLEAR     34  23  64 S8        30.21F WCI  27          
BOONE *        CLEAR     34  25  69 SW10      30.17S WCI  26          
CHARITON *     CLEAR     36  25  64 S7        30.21F WCI  30          
DES MOINES     CLEAR     36  24  62 S8        30.21F WCI  30          
6HR MIN TEMP:  31; 6HR MAX TEMP:  38;                                

GRINNELL*      CLEAR     29  22  75 S8        30.24S WCI  21          
KNOXVILLE *    CLEAR     36  23  60 SE5       30.21F WCI  32          
MARSHALLTOWN   CLEAR     27  21  78 SE13      30.19F WCI  16          
6HR MIN TEMP:  24; 6HR MAX TEMP:  30;                                

NEWTON *       CLEAR     25  19  80 SE9       30.22F WCI  15          
PELLA *        CLEAR     35  23  62 S5        30.24F WCI  31          
PERRY *        FAIR      27  23  84 S8        30.19S WCI  19          
$$
 
IAZ004>006-015-016-023>025-035-036-140100-
   NORTH CENTRAL IOWA
  
CITY           SKY/WX    TMP DP  RH WIND       PRES   REMARKS
ALGONA *       CLEAR     23 N/A N/A S15       30.12F WCI  10          
CLARION *      CLEAR     23  23 100 S12       30.17S WCI  12          
ESTHERVILLE    CLEAR     23  19  85 S13       30.09F WCI  11          
6HR MIN TEMP:  19; 6HR MAX TEMP:  26;                                

FORT DODGE *   CLEAR     28  23  81 S8        30.17S WCI  20          
MASON CITY     CLEAR     20  14  77 S7        30.17F HAZE    WCI  11  
6HR MIN TEMP:  20; 6HR MAX TEMP:  25;                                

FOREST CITY *  FAIR      23  19  86 S8        30.16S WCI  14          
WEBSTER CITY * CLEAR     27  19  74 S12       30.16S WCI  16          
IOWA FALLS *   FAIR      24  20  82 S7        30.20R WCI  16          
$$

IAZ007>011-017>019-026>030-037>042-050>054-066-140100-
   NORTHEAST IOWA
  
CITY           SKY/WX    TMP DP  RH WIND       PRES   REMARKS
CEDAR RAPIDS   FAIR      27  19  72 SE5       30.24F WCI  22          
6HR MIN TEMP:  27; 6HR MAX TEMP:  32;                                

CHARLES CITY * FAIR      23  19  86 S9        30.19S WCI  13          
CLINTON *      FAIR      27  20  75 S12       30.28F WCI  17          
DECORAH *      FAIR      25  19  80 VRB7      30.18S WCI  17          
DUBUQUE        FAIR      25  16  68 S13       30.23F WCI  14          
6HR MIN TEMP:  24; 6HR MAX TEMP:  29;                                

MONTICELLO *   FAIR      27  19  74 SE8       30.24F WCI  18          
OELWEIN *      FAIR      23  23 100 S9        30.20F WCI  13          
WATERLOO       FAIR      26  19  74 S7        30.21S WCI  18          
6HR MIN TEMP:  23; 6HR MAX TEMP:  28;                                

$$
 
IAZ064-065-067-068-078-140100-
   EAST CENTRAL IOWA
  
CITY           SKY/WX    TMP DP  RH WIND       PRES   REMARKS
DAVENPORT      FAIR      31  20  63 S12       30.29F WCI  22          
6HR MIN TEMP:  29; 6HR MAX TEMP:  35;                                

IOWA CITY      FAIR      30  20  66 E3        30.29F                  
6HR MIN TEMP:  26; 6HR MAX TEMP:  33;                                

MT. PLEASANT * CLEAR     32  23  69 SE3       30.28F                  
MUSCATINE *    FAIR      28  21  74 SE7       30.29F WCI  21          
QUAD CITIES    FAIR      32  21  64 CALM      30.29F                  
6HR MIN TEMP:  28; 6HR MAX TEMP:  37;                                

$$
 
IAZ062-063-075>077-085>089-095>099-140100-
   SOUTHEAST IOWA
  
CITY           SKY/WX    TMP DP  RH WIND       PRES   REMARKS
BURLINGTON     CLOUDY    33  25  72 CALM      30.28F                  
6HR MIN TEMP:  29; 6HR MAX TEMP:  36;                                

FAIRFIELD *    CLEAR     32  23  69 SE5       30.27S WCI  27          
FORT MADISON * PTCLDY    36  27  69 SE3       30.29F                  
KEOKUK *       PTCLDY    37  27  65 SE7       30.28F WCI  32          
OSKALOOSA *    FAIR      30  23  74 SE10      30.25F WCI  21          
OTTUMWA        CLEAR     35  23  61 SE7       30.25F WCI  29          
6HR MIN TEMP:  29; 6HR MAX TEMP:  37;                                

WASHINGTON *   CLEAR     27  23  86 SE6       30.29S WCI  20          
$$

ABBREVIATIONS USED IN REMARKS
   TC - TEMPERATURES IN CELSIUS
  WCI - WIND CHILL INDEX
   HX - HEAT INDEX
  VSB - VISIBILITY  
$$

  

765 
ASUS43 KDMX 140001
RWRIA 

WEATHER ROUNDUP FOR IOWA
NATIONAL WEATHER SERVICE DES MOINES IA
600 PM CST TUE FEB 13 2018

NOTE: "FAIR" INDICATES FEW OR NO CLOUDS BELOW 12,000 FEET WITH NO
SIGNIFICANT WEATHER AND/OR OBSTRUCTIONS TO VISIBILITY.

* - THESE STATIONS ARE NOT NWS STATIONS...THUS NOT UNDER NWS
QUALITY CONTROL.  THEY ALSO DO NOT REPORT WEATHER SUCH 
AS PRECIPITATION OR FOG.  

IAZ001>003-012>014-020>022-031>034-043>046-140100-
   NORTHWEST IOWA
  
CITY           SKY/WX    TMP DP  RH WIND       PRES   REMARKS
CARROLL *      CLEAR     30  25  80 S7        30.16F WCI  23          
CHEROKEE *     CLEAR     31  25  78 SW10      30.13S WCI  22          
DENISON *      CLEAR     32  27  80 S7        30.17F WCI  26          
LE MARS *      CLEAR     28  25  86 S8        30.11F WCI  20          
ORANGE CITY *  CLEAR     28  27  93 SW14      30.09F WCI  17          
SHELDON *      CLEAR     27  23  86 S10       30.07F WCI  17          
SIOUX CITY     CLEAR     30  24  78 S13       30.14F WCI  20          
6HR MIN TEMP:  28; 6HR MAX TEMP:  33;                                

SPENCER        CLEAR     26  20  77 S13       30.11F WCI  15          
6HR MIN TEMP:  23; 6HR MAX TEMP:  30;                                

STORM LAKE *   CLEAR     28  23  80 SW13      30.12F WCI  18          
$$
 
IAZ055>058-069>071-079>083-090>094-140100-
   SOUTHWEST IOWA
  
CITY           SKY/WX    TMP DP  RH WIND       PRES   REMARKS
ATLANTIC *     CLEAR     32  27  80 SW5       30.19R WCI  27          
AUDUBON *      CLEAR     32  27  80 CALM      30.19S                  
CLARINDA *     CLEAR     39  30  70 S3        30.22S                  
COUNCIL BLFS * CLEAR     37  32  81 SW7       30.17S WCI  32          
CRESTON *      CLEAR     36  27  69 S7        30.20F WCI  30          
HARLAN  *      CLEAR     30  27  86 S5        30.21S WCI  25          
LAMONI         CLEAR     40  24  53 S7        30.21F                  
6HR MIN TEMP:  33; 6HR MAX TEMP:  45;                                

RED OAK *      CLEAR     36  28  75 CALM      30.19F                  
SHENANDOAH *   CLEAR     39  30  70 CALM      30.20S                  
$$
 
IAZ047>049-059>061-072>074-084-140100-
   CENTRAL IOWA
  
CITY           SKY/WX    TMP DP  RH WIND       PRES   REMARKS
AMES           CLEAR     31  22  69 S6        30.19F WCI  25          
6HR MIN TEMP:  24; 6HR MAX TEMP:  34;                                

ANKENY *       CLEAR     34  23  64 S8        30.21F WCI  27          
BOONE *        CLEAR     34  25  69 SW10      30.17S WCI  26          
CHARITON *     CLEAR     36  25  64 S7        30.21F WCI  30          
DES MOINES     CLEAR     36  24  62 S8        30.21F WCI  30          
6HR MIN TEMP:  31; 6HR MAX TEMP:  38;                                

GRINNELL*      CLEAR     29  22  75 S8        30.24S WCI  21          
KNOXVILLE *    CLEAR     36  23  60 SE5       30.21F WCI  32          
MARSHALLTOWN   CLEAR     27  21  78 SE13      30.19F WCI  16          
6HR MIN TEMP:  24; 6HR MAX TEMP:  30;                                

NEWTON *       CLEAR     25  19  80 SE9       30.22F WCI  15          
PELLA *        CLEAR     35  23  62 S5        30.24F WCI  31          
$$
 
IAZ004>006-015-016-023>025-035-036-140100-
   NORTH CENTRAL IOWA
  
CITY           SKY/WX    TMP DP  RH WIND       PRES   REMARKS
CLARION *      CLEAR     23  23 100 S12       30.17S WCI  12          
ESTHERVILLE    CLEAR     23  19  85 S13       30.09F WCI  11          
6HR MIN TEMP:  19; 6HR MAX TEMP:  26;                                

FORT DODGE *   CLEAR     28  23  81 S8        30.17S WCI  20          
MASON CITY     CLEAR     20  14  77 S7        30.17F HAZE    WCI  11  
6HR MIN TEMP:  20; 6HR MAX TEMP:  25;                                

FOREST CITY *  FAIR      23  19  86 S8        30.16S WCI  14          
WEBSTER CITY * CLEAR     27  19  74 S12       30.16S WCI  16          
IOWA FALLS *   FAIR      24  20  82 S7        30.20R WCI  16          
$$

IAZ007>011-017>019-026>030-037>042-050>054-066-140100-
   NORTHEAST IOWA
  
CITY           SKY/WX    TMP DP  RH WIND       PRES   REMARKS
CEDAR RAPIDS   FAIR      27  19  72 SE5       30.24F WCI  22          
6HR MIN TEMP:  27; 6HR MAX TEMP:  32;                                

CHARLES CITY * FAIR      23  19  86 S9        30.19S WCI  13          
CLINTON *      FAIR      27  20  75 S12       30.28F WCI  17          
DECORAH *      FAIR      25  19  80 VRB7      30.18S WCI  17          
DUBUQUE        FAIR      25  16  68 S13       30.23F WCI  14          
6HR MIN TEMP:  24; 6HR MAX TEMP:  29;                                

MONTICELLO *   FAIR      27  19  74 SE8       30.24F WCI  18          
OELWEIN *      FAIR      23  23 100 S9        30.20F WCI  13          
WATERLOO       FAIR      26  19  74 S7        30.21S WCI  18          
6HR MIN TEMP:  23; 6HR MAX TEMP:  28;                                

$$
 
IAZ064-065-067-068-078-140100-
   EAST CENTRAL IOWA
  
CITY           SKY/WX    TMP DP  RH WIND       PRES   REMARKS
DAVENPORT      FAIR      31  20  63 S12       30.29F WCI  22          
6HR MIN TEMP:  29; 6HR MAX TEMP:  35;                                

IOWA CITY      FAIR      30  20  66 E3        30.29F                  
6HR MIN TEMP:  26; 6HR MAX TEMP:  33;                                

MT. PLEASANT * CLEAR     32  23  69 SE3       30.28F                  
MUSCATINE *    FAIR      28  21  74 SE7       30.29F WCI  21          
QUAD CITIES    FAIR      32  21  64 CALM      30.29F                  
6HR MIN TEMP:  28; 6HR MAX TEMP:  37;                                

$$
 
IAZ062-063-075>077-085>089-095>099-140100-
   SOUTHEAST IOWA
  
CITY           SKY/WX    TMP DP  RH WIND       PRES   REMARKS
BURLINGTON     CLOUDY    33  25  72 CALM      30.28F                  
6HR MIN TEMP:  29; 6HR MAX TEMP:  36;                                

FAIRFIELD *    CLEAR     32  23  69 SE5       30.27S WCI  27          
FORT MADISON * PTCLDY    36  27  69 SE3       30.29F                  
KEOKUK *       PTCLDY    37  27  65 SE7       30.28F WCI  32          
OSKALOOSA *    FAIR      30  23  74 SE10      30.25F WCI  21          
OTTUMWA        CLEAR     35  23  61 SE7       30.25F WCI  29          
6HR MIN TEMP:  29; 6HR MAX TEMP:  37;                                

WASHINGTON *   CLEAR     27  23  86 SE6       30.29S WCI  20          
$$

ABBREVIATIONS USED IN REMARKS
   TC - TEMPERATURES IN CELSIUS
  WCI - WIND CHILL INDEX
   HX - HEAT INDEX
  VSB - VISIBILITY  
$$